Zurück zum Katalog

ATLAS CENTAUR R/B

AktivLEO
NORAD 3598·ROCKET BODY·🇺🇸 United States

Gestartet Dec 7, 1968 von Cape Canaveral Space Force Station

Loading…

Nächste Überflüge (nächste 24 Stunden)

TLE

AktuellSource: Space-Track

Epoche: Sep 14, 2026, 12:01 UTC

1 03598U 68110B   26257.50136220  .00000355  00000-0  79851-4 0  9999
2 03598  34.9933 322.5997 0047016 296.8990  62.6905 14.57739575 37614

Verfolge ATLAS CENTAUR R/B in Echtzeit mit AllMySat

Download on the App Store